Probability
0 0 0 0 0 0 0 0 0 0 0 0 0 0 0 0 0 0 0 0 0 1 0 0 0 0 0 1 0 0 0 0 0 0 0 0 0 0 0 0 0 0 0
0 0 0 0 0 0 0 0 0 0 0 0 0 0 0 0 0 0 0 0 0 1 1 0 0 0 1 2 1 0 0 0 0 0 0 0 0 0 0 0 0 0 0
0 0 0 0 0 0 0 0 0 0 0 0 0 0 0 0 0 0 0 0 0 0 1 2 2 1 1 2 2 1 0 0 0 0 0 0 0 0 0 0 0 0 0
0 0 0 0 0 0 0 0 0 0 0 0 0 0 0 0 0 0 0 0 0 0 1 3 4 3 2 2 2 1 0 0 0 0 0 0 0 0 0 0 0 0 0
0 0 0 0 0 0 0 0 0 0 0 0 0 0 0 0 0 0 0 0 0 0 0 1 3 4 3 2 1 0 0 0 0 0 0 0 0 0 0 0 0 0 0
0 0 0 0 0 0 0 0 0 0 0 0 1 1 1 0 0 0 0 0 0 0 0 0 1 2 2 1 1 0 0 0 0 0 0 0 0 0 0 0 0 0 0
0 0 0 0 0 0 0 0 0 0 0 1 2 2 1 0 0 0 0 0 0 0 0 0 0 0 0 0 0 0 0 0 0 0 0 0 0 0 0 0 0 0 0
1 0 0 0 0 0 0 0 1 1 1 1 2 3 2 1 1 0 0 0 0 0 0 0 0 0 0 0 0 0 0 0 0 0 0 0 0 0 0 0 0 0 0
2 2 1 2 1 1 1 1 1 2 2 1 1 2 2 2 2 1 0 0 0 0 0 0 0 0 0 0 0 0 0 0 0 0 0 0 0 0 0 0 0 0 0
3 3 2 2 3 3 3 2 1 3 4 3 2 1 1 2 3 2 1 0 0 0 0 0 0 0 0 0 0 0 0 0 0 0 0 0 0 0 0 0 0 0 0
4 3 2 1 2 3 3 2 1 2 5 5 3 1 0 1 2 2 1 1 0 0 0 0 0 0 0 0 0 0 0 0 0 0 0 0 0 0 0 0 0 0 0
4 3 1 0 1 1 1 1 0 1 3 4 3 2 2 2 2 2 1 0 0 0 0 0 0 0 0 0 0 0 0 0 0 0 0 0 0 0 0 0 0 0 0
4 2 0 0 0 0 0 0 0 0 1 1 2 2 3 3 5 4 2 1 1 0 0 0 0 0 0 0 0 0 0 0 0 0 0 0 0 0 0 0 0 0 0
3 1 0 0 0 0 0 0 0 0 0 0 1 1 2 3 4 5 4 3 2 2 0 0 0 0 0 0 0 0 0 0 0 0 0 0 0 0 0 0 0 0 0
1 0 0 0 0 0 0 0 0 0 0 0 0 0 1 1 1 3 3 3 4 3 1 0 0 0 0 0 0 0 0 0 0 0 0 0 0 0 0 0 0 0 0
0 0 0 0 0 0 0 0 0 0 0 0 0 0 0 0 0 1 1 2 3 3 1 1 0 0 0 0 0 0 0 0 0 0 0 0 0 0 0 0 0 0 0
0 0 0 0 0 0 0 0 0 0 0 0 0 0 0 0 0 0 0 1 2 1 0 0 0 0 0 0 0 0 0 0 0 0 0 0 0 0 0 0 0 0 0
0 0 0 0 0 0 0 0 0 0 0 0 0 0 0 0 0 0 0 0 0 0 0 0 0 0 0 0 0 0 0 0 0 0 0 0 0 0 0 0 0 0 0
0 0 0 0 0 0 0 0 0 0 0 0 0 0 0 0 0 0 0 0 0 0 0 0 0 0 0 0 0 0 0 0 0 0 0 0 0 0 0 0 0 0 0
0 0 1 0 0 0 0 0 0 0 0 0 0 0 0 0 0 0 0 0 0 0 0 0 0 0 0 0 0 0 0 0 0 0 0 0 0 0 0 0 0 0 0
1 1 1 0 1 1 0 0 0 0 0 0 0 0 0 0 0 0 0 0 0 0 0 0 0 0 0 0 0 0 1 2 1 0 0 0 0 1 1 0 0 0 0
2 1 1 1 2 2 1 0 0 0 0 0 0 0 0 0 0 0 0 0 0 0 0 0 0 0 0 0 0 0 1 4 4 2 1 2 1 1 1 0 0 0 0
2 2 1 2 3 2 1 0 0 0 0 0 0 0 0 0 0 0 0 0 0 0 0 0 0 0 0 0 0 0 1 2 3 2 2 3 2 1 1 0 0 0 0
1 1 2 2 2 1 0 0 0 0 1 0 0 0 0 0 0 0 0 0 0 0 0 0 0 0 0 0 0 0 0 0 1 1 1 2 2 0 0 0 0 0 0
0 1 1 1 0 0 0 0 0 0 0 0 0 0 0 0 0 0 0 0 0 0 0 0 0 0 0 0 0 0 0 0 0 0 0 1 1 0 0 0 0 0 0
0 0 0 0 0 0 0 0 0 0 0 0 0 0 0 0 0 0 0 0 0 0 0 0 0 0 0 0 0 0 0 0 0 0 0 0 0 0 0 0 0 0 0
Wind_Speed
6 6 5 4 5 5 5 4 4 4 3 2 2 1 2 2 1 1 3 5 4 3 1 1 1 2 3 3 3 3 3 4 6 7 7 6 5 4 4 3 3 3 3
6 6 6 6 5 5 4 4 4 3 3 2 2 2 2 3 2 2 1 4 4 3 3 1 0 1 1 2 3 4 4 4 6 6 6 6 5 4 4 3 3 2 2
7 7 6 6 6 6 6 4 4 3 3 3 3 2 2 2 2 2 2 1 4 5 4 3 2 2 2 2 2 3 4 4 5 5 6 5 5 5 4 4 3 2 1
9 6 5 6 6 5 5 4 4 4 4 4 4 3 2 2 0 2 1 2 2 3 6 6 4 4 3 3 3 3 3 3 3 4 4 4 4 4 4 4 4 3 2
9 7 5 5 7 6 5 5 4 4 4 4 3 3 3 2 1 2 1 1 3 2 4 6 6 5 4 3 2 2 3 3 3 3 3 3 3 3 4 4 4 4 3
9 7 5 7 7 6 5 5 5 4 3 4 4 4 4 3 3 3 1 1 2 2 1 2 4 6 5 3 2 1 3 4 4 3 2 2 2 2 2 3 4 4 4
9 7 5 6 6 6 7 7 6 6 5 5 5 5 5 7 6 4 4 4 3 2 3 3 1 1 4 4 2 1 3 4 4 3 2 1 1 1 1 1 2 3 3
9 8 8 6 7 6 8 8 7 5 5 6 6 5 5 6 6 7 5 5 5 4 4 3 4 3 2 2 7 4 3 3 3 2 2 1 2 2 1 1 0 1 2
9 9 9 7 8 8 8 9 9 9 7 7 7 6 5 5 4 6 8 7 6 4 5 5 5 4 3 2 5 7 4 3 2 1 1 2 2 2 2 2 1 1 1
7 8 8 8 8 7 8 8 10 9 9 8 7 7 7 4 4 3 5 7 8 7 7 5 6 5 5 3 2 4 3 1 1 0 1 2 3 3 3 3 2 2 1
6 7 7 7 7 6 8 8 8 9 8 9 8 7 8 5 8 5 4 4 5 7 8 7 6 6 5 5 4 6 5 2 1 1 1 2 3 3 3 3 4 3 3
4 6 6 6 6 6 6 7 7 9 9 9 9 8 8 7 8 7 7 5 5 5 7 7 7 6 6 6 7 8 6 5 4 2 2 1 2 2 2 3 3 4 4
3 5 6 6 5 5 5 6 7 7 9 9 9 8 8 9 7 7 7 7 6 4 4 6 8 8 7 7 7 10 9 8 7 6 4 3 2 1 1 2 3 3 3
4 5 6 5 5 4 5 5 5 6 7 8 9 9 7 7 7 7 7 7 6 5 6 7 5 7 8 8 7 12 9 12 10 9 7 6 4 3 1 0 2 3 3
3 5 5 5 5 4 4 5 4 5 6 6 7 8 7 6 7 7 7 7 6 6 6 6 4 5 6 7 8 10 10 13 13 11 10 8 7 5 4 2 1 2 3
4 5 5 6 6 5 5 4 4 3 5 5 5 7 7 6 6 7 7 7 7 7 5 3 3 3 3 5 7 10 10 14 14 13 11 10 9 8 7 5 4 3 4
5 5 5 5 5 5 5 4 4 4 5 5 6 6 7 7 6 6 7 7 7 7 8 5 4 4 5 6 5 8 9 9 10 15 13 12 11 10 9 8 7 6 5
5 5 5 5 4 4 4 4 4 4 4 5 5 6 6 5 7 7 6 8 7 8 8 9 6 5 7 7 6 7 7 8 8 14 15 14 13 12 11 10 9 8 7
4 4 5 5 5 5 5 5 5 5 5 5 5 5 5 6 6 6 7 7 6 7 7 7 6 4 4 4 5 6 7 7 8 9 13 13 13 13 12 12 11 10 9
3 4 4 5 5 6 6 6 6 5 5 5 5 5 5 5 5 5 5 6 6 6 7 7 6 4 4 3 4 6 6 7 7 7 8 9 11 14 15 14 13 13 12
2 3 4 5 5 5 5 6 6 7 6 6 6 6 4 3 5 5 4 4 4 4 4 5 5 4 5 4 5 5 6 5 6 6 7 8 9 9 11 15 17 16 15
1 2 3 4 4 3 2 3 8 7 7 7 6 6 4 6 7 7 6 6 6 4 3 3 3 4 5 5 4 4 4 4 4 4 6 6 6 7 8 8 11 16 17
2 2 1 1 2 2 5 5 8 9 8 7 7 6 4 4 5 6 7 8 7 5 4 4 3 3 3 4 5 5 4 3 2 1 2 4 4 6 6 5 6 11 13
5 5 5 4 4 7 9 6 6 9 7 7 6 6 6 6 4 4 4 4 3 2 2 4 2 1 1 2 3 3 3 2 1 1 1 2 1 3 4 4 6 10 11
7 6 6 7 6 8 12 10 8 4 4 5 4 5 5 6 5 1 7 5 3 2 2 2 3 2 3 3 3 3 3 2 2 2 3 2 1 2 3 4 2 6 9
6 6 7 7 7 8 13 14 12 3 2 2 2 2 1 3 3 3 7 5 4 2 2 4 5 6 5 6 7 5 3 3 2 2 4 3 1 1 2 1 1 1 4
Wind_Direction
191 176 186 179 193 178 179 193 203 161 171 135 89 54 56 43 20 43 96 78 25 360 320 226 213 217 213 210 212 207 195 182 175 167 162 157 152 147 142 131 115 99 79
193 183 190 183 189 188 188 200 197 187 198 175 147 79 36 45 52 83 77 124 100 52 32 8 196 173 186 192 203 200 191 186 181 179 176 172 169 165 162 155 133 109 81
193 192 192 186 186 190 194 202 187 210 201 187 179 158 97 41 23 69 76 67 127 109 76 63 80 101 111 113 132 150 162 170 180 189 191 187 183 182 181 183 177 158 120
198 192 193 193 193 192 198 191 209 201 192 201 192 180 169 135 109 52 129 132 110 116 105 74 68 76 89 95 113 130 147 159 171 185 193 193 194 195 196 200 203 207 209
203 194 199 198 191 198 205 204 207 214 201 199 201 203 212 194 168 229 182 98 112 139 120 110 96 69 63 69 95 129 150 160 166 172 181 193 202 208 215 214 216 222 228
215 208 200 211 201 201 208 215 202 214 220 206 214 211 220 223 222 230 247 228 215 147 113 136 162 119 87 51 36 123 163 159 153 153 161 180 199 216 227 229 222 226 230
219 220 219 214 208 211 212 215 209 206 214 214 218 220 219 228 234 212 229 232 212 179 214 178 210 201 145 137 83 67 136 142 140 134 131 140 172 190 195 224 230 230 227
223 226 224 221 216 218 218 217 214 214 210 211 223 231 232 214 218 224 219 233 234 194 227 209 191 191 215 183 106 97 87 107 121 118 110 111 114 106 107 114 183 212 233
227 227 229 225 222 219 218 216 215 218 217 217 230 230 238 238 207 201 216 220 228 223 222 218 215 193 185 202 158 137 102 78 88 112 110 109 110 102 86 77 73 40 304
228 227 229 226 224 222 222 220 220 223 221 218 218 231 245 261 243 209 204 223 224 223 226 211 223 214 197 205 137 111 129 86 9 143 129 112 97 94 85 68 53 44 20
226 227 228 227 227 225 226 225 223 223 223 224 219 214 221 232 248 251 234 212 217 225 225 221 212 216 208 210 206 156 152 183 215 169 131 114 102 90 84 68 52 42 30
220 223 224 223 225 226 227 227 227 225 232 233 230 226 220 220 223 229 234 235 238 229 218 217 222 214 211 215 212 149 177 197 196 181 160 135 104 82 67 50 34 23 22
216 209 210 219 220 224 228 227 229 230 231 236 237 236 236 238 239 233 234 238 242 241 230 220 219 217 212 216 204 173 198 201 201 198 194 190 179 132 52 24 14 9 5
213 197 197 206 206 209 215 217 235 231 237 236 241 243 245 246 242 237 238 235 236 238 236 233 207 214 216 216 204 183 200 193 200 202 202 202 201 198 199 12 9 3 358
201 192 187 186 185 189 204 205 224 226 235 238 241 244 244 246 247 244 239 232 232 237 240 240 227 217 216 222 181 201 217 186 194 201 202 204 207 208 212 223 263 315 322
189 190 191 181 175 177 186 197 217 221 231 232 239 243 239 238 239 238 236 231 230 239 247 236 230 232 214 224 200 224 223 166 190 199 202 205 208 210 214 223 236 256 278
187 184 186 191 177 178 178 183 214 207 225 226 228 238 243 241 237 234 231 230 226 226 241 241 224 249 235 235 196 222 222 203 198 196 202 205 208 211 216 224 232 241 255
186 189 177 190 177 184 191 200 207 216 228 239 238 241 246 245 244 241 233 229 227 225 234 244 228 224 237 247 238 222 221 221 221 185 197 205 209 212 216 222 227 232 242
184 194 197 203 195 203 207 215 220 223 228 240 247 250 254 251 252 246 242 239 233 230 228 238 237 216 227 234 237 235 229 225 230 189 193 206 212 215 219 222 224 227 233
206 213 215 221 218 219 225 227 229 235 237 237 242 248 255 258 262 265 258 254 245 238 230 230 230 213 205 213 226 227 225 214 222 212 204 210 211 214 222 224 225 226 228
252 247 241 240 236 237 240 246 241 239 239 235 234 235 242 303 336 307 300 292 273 252 238 229 226 212 199 186 211 223 231 221 223 218 214 209 210 218 215 222 226 228 225
267 252 247 246 247 254 4 303 273 249 242 235 234 234 210 215 221 231 261 289 300 290 278 247 231 226 219 208 203 210 222 216 220 206 232 227 222 231 234 235 208 209 218
50 35 352 306 287 14 357 292 263 265 250 246 245 236 222 232 241 237 205 219 232 236 269 289 263 241 226 206 194 202 211 221 217 145 220 247 237 249 251 240 199 204 214
53 43 36 32 37 33 9 340 295 256 249 242 241 248 240 238 230 285 267 246 252 212 222 258 280 280 215 183 195 195 184 176 119 124 202 248 251 270 292 280 203 214 223
55 52 45 40 38 32 17 3 328 267 252 244 239 248 261 262 101 297 274 268 259 233 174 250 336 24 92 123 147 159 162 171 191 189 190 236 257 275 277 272 226 213 233
53 59 55 44 36 30 21 12 350 322 291 259 232 221 92 330 34 262 263 265 264 249 223 196 205 201 205 189 195 216 200 200 201 202 178 200 217 235 275 250 297 265 234